Tracking 19570 objects as of 21-Feb-2019
HD Live streaming from Space Station
objects crossing your sky now

COSMOS 84

Track COSMOS 84 now!
10-day predictions
COSMOS 84 is classified as:


NORAD ID: 1574
Int'l Code: 1965-070E
Perigee: 1,477.2 km
Apogee: 1,575.8 km
Inclination: 56.1 °
Period: 116.4 minutes
Semi major axis: 7897 km
RCS: 0.553 m2 (medium)
Launch date: September 3, 1965
Source: Commonwealth of Independent States (former USSR) (CIS)
Launch site: TYURATAM MISSILE AND SPACE COMPLEX (TTMTR)
aabbcc
Your satellite tracking list
Your tracking list is empty




NASA's NSSDC Master Catalog

Two Line Element Set (TLE):
1  1574U 65070E   19051.91171880 -.00000079 +00000-0 +10192-3 0  9999
2  1574 056.0518 268.0595 0062404 315.1938 141.2709 12.37003630415644
Source of the keplerian elements: AFSPC